Location: Allaines
(49.9632°N, 2.9458°E)
Time: 13:34:00
(UTC+00:00)

Cosmos 1850 Rocket - Pass Details

Date: 09 April 2020
Orbit: 754 x 786 km, 74.0° (Epoch: 25 May)

Event Time Altitude Azimuth Distance (km) Brightness Sun altitude
Exits shadow 20:24:22 19° 170° (S) 1,755 5.5 -17.0°
Maximum altitude 20:27:48 45° 105° (ESE) 1,024 4.2 -17.4°
Drops below altitude 10° 20:32:42 10° 34° (NE) 2,291 6.5 -18.0°
Sets 20:35:09 0° 29° (NNE) 3,222 7.4 -18.3°
